Location: Kempten-Allg�u
(47.7250°N, 10.3114°E)
Time: 21:41:56
(UTC+02:00)

ISS - Visible Passes

Search period start: 16 May 2021 00:00
Search period end: 26 May 2021 00:00
Orbit: 417 x 422 km, 51.6° (Epoch: 16 May)

Date Brightness Start Highest point End Pass type
(mag) Time Alt. Az. Time Alt. Az. Time Alt. Az.
16 May -2.4 01:17:12 10° WNW 01:20:25 40° N 01:23:39 10° ENE visible
16 May -3.7 02:54:08 10° WNW 02:57:31 78° NNE 03:00:54 10° ESE visible
16 May -2.6 04:31:20 10° W 04:34:04 23° SW 04:36:47 10° SSE visible
16 May -3.8 22:52:25 10° WSW 22:55:47 84° NNW 22:59:10 10° ENE visible
17 May -2.4 00:29:38 10° WNW 00:32:52 41° N 00:36:06 10° ENE visible
17 May -3.2 02:06:40 10° WNW 02:10:01 59° NNE 02:13:22 10° E visible
17 May -3.2 03:43:38 10° WNW 03:46:44 34° SW 03:49:50 10° SSE visible
17 May -3.9 22:05:00 10° SW 22:08:20 70° SSE 22:11:42 10° ENE visible
17 May -2.6 23:42:03 10° W 23:45:18 44° N 23:48:34 10° ENE visible
18 May -2.8 01:19:12 10° WNW 01:22:30 49° NNE 01:22:53 46° NE visible
18 May -2.9 22:54:28 10° W 22:57:46 51° NNW 23:01:05 10° ENE visible
19 May -2.6 00:31:42 10° WNW 00:34:57 43° N 00:36:27 26° ENE visible
19 May -1.4 02:08:34 10° WNW 02:09:22 16° WNW 02:09:22 16° WNW visible
19 May -3.3 22:06:53 10° W 22:10:14 63° NNW 22:13:36 10° ENE visible
19 May -2.4 23:44:10 10° WNW 23:47:23 40° N 23:50:16 12° ENE visible
20 May -2.5 01:21:06 10° WNW 01:23:12 35° WNW 01:23:12 35° WNW visible
20 May -2.4 22:56:35 10° WNW 22:59:49 41° N 23:03:02 10° ENE visible
21 May -3.3 00:33:38 10° WNW 00:36:59 60° NNE 00:37:06 59° NNE visible
21 May -2.5 22:09:00 10° W 22:12:14 44° N 22:15:30 10° ENE visible
21 May -2.9 23:46:09 10° WNW 23:49:26 49° NNE 23:51:03 25° ENE visible
22 May -1.5 01:23:00 10° WNW 01:23:59 18° WNW 01:23:59 18° WNW visible
22 May -2.6 22:58:38 10° WNW 23:01:53 43° N 23:05:02 11° E visible
23 May -3.0 00:35:29 10° WNW 00:37:58 45° WNW 00:37:58 45° WNW visible
23 May -2.5 22:11:05 10° WNW 22:14:18 40° N 22:17:31 10° ENE visible
23 May -3.7 23:48:00 10° WNW 23:51:23 78° NNE 23:51:59 57° E visible
24 May -3.3 23:00:31 10° WNW 23:03:52 60° NNE 23:06:01 20° E visible
25 May -1.8 00:37:29 10° WNW 00:38:56 21° W 00:38:56 21° W visible
25 May -2.9 22:13:01 10° WNW 22:16:19 49° NNE 22:19:37 10° E visible
25 May -3.5 23:49:53 10° WNW 23:53:00 50° SW 23:53:00 50° SW visible
